[TLELIST] Archives

 

[list_settings.list_name] Current TLEs

December 3rd 2020 PST

HST 1 20580U 90037B 20338.14913771 .00000972 00000-0 48133-4 0 9994 2 20580 28.4702 283.8291 0002917 108.5033 271.3505 15.09498448481561 ISS (ZARYA) 1 25544U 98067A 20338.24613994 .00004534 00000-0 89953-4 0 9998 2 25544 51.6467 231.9584 0001957 104.2691 41.1573 15.49143234258224 CXO 1 25867U 99040B 20338.41050083 .00000775 00000-0 00000-0 0 9996 2 25867 59.4237 262.2528 8011106 226.6068 359.8405 0.37803784 9704 ____________________________________________________________________ These 2-Line ...Continue Reading

[list_settings.list_name] Current TLEs

December 2nd 2020 PST

HST 1 20580U 90037B 20336.58867075 .00001045 00000-0 52568-4 0 9994 2 20580 28.4704 294.1517 0002925 92.6801 70.4898 15.09496121481338 ISS (ZARYA) 1 25544U 98067A 20336.88693861 .00004720 00000-0 93347-4 0 9996 2 25544 51.6470 238.6835 0001915 101.4338 18.8734 15.49130315258015 CXO 1 25867U 99040B 20338.41004239 .00000775 00000-0 00000-0 0 9998 2 25867 59.4242 262.2532 8011096 226.6064 359.7781 0.37803692 9691 ____________________________________________________________________ These 2-Line ...Continue Reading

[list_settings.list_name] Current TLEs

December 1st 2020 PST

HST 1 20580U 90037B 20335.32952494 .00000975 00000-0 48323-4 0 9990 2 20580 28.4705 302.4811 0002923 80.2013 66.9771 15.09493575481144 ISS (ZARYA) 1 25544U 98067A 20336.23881537 .00004902 00000-0 96666-4 0 9993 2 25544 51.6479 241.8901 0001933 98.6369 4.7960 15.49124337257915 CXO 1 25867U 99040B 20338.41004239 .00000775 00000-0 00000+0 0 9997 2 25867 59.4242 262.2532 8011096 226.6064 359.7781 0.37803692 20830 ____________________________________________________________________ These 2-Line ...Continue Reading

[list_settings.list_name] Current TLEs

November 30th 2020 PST

HST 1 20580U 90037B 20334.67129652 +.00000973 +00000-0 +48170-4 0 9997 2 20580 028.4707 306.8352 0002912 073.5481 089.6127 15.09492573480914 ISS (ZARYA) 1 25544U 98067A 20335.21662218 .00005341 00000-0 10461-3 0 9999 2 25544 51.6473 246.9472 0001967 94.4342 64.6455 15.49115058257756 CXO 1 25867U 99040B 20335.76711002 .00000716 00000-0 00000+0 0 9990 2 25867 59.4761 262.3350 8006126 226.6040 0.0411 0.37802260 20822 ____________________________________________________________________ These 2-Line ...Continue Reading

[list_settings.list_name] Current TLEs

November 29th 2020 PST

HST 1 20580U 90037B 20334.19137802 .00000958 00000-0 47256-4 0 9997 2 20580 28.4707 310.0098 0002902 68.9357 1.0955 15.09491696480964 ISS (ZARYA) 1 25544U 98067A 20334.24846630 .00005097 00000-0 10025-3 0 9997 2 25544 51.6464 251.7349 0001932 89.1080 67.2039 15.49103108257609 CXO 1 25867U 99040B 20335.76711002 .00000716 00000-0 00000+0 0 9990 2 25867 59.4761 262.3350 8006126 226.6040 0.0411 0.37802260 20822 ____________________________________________________________________ These 2-Line ...Continue Reading

[list_settings.list_name] Current TLEs

November 28th 2020 PST

HST 1 20580U 90037B 20332.68777196 .00000933 00000-0 45721-4 0 9993 2 20580 28.4708 319.9558 0002862 53.7410 109.2505 15.09489292480748 ISS (ZARYA) 1 25544U 98067A 20333.27720529 .00004150 00000-0 83182-4 0 9991 2 25544 51.6465 256.5405 0002012 89.3695 46.8789 15.49088881257458 CXO 1 25867U 99040B 20333.12278526 +.00000672 +00000-0 +00000-0 0 9999 2 25867 059.5266 262.4102 7999974 226.6124 000.0905 00.37801675009670 ____________________________________________________________________ These 2-Line ...Continue Reading

[list_settings.list_name] Current TLEs

November 27th 2020 PST

HST 1 20580U 90037B 20331.42373212 +.00000871 +00000-0 +41951-4 0 9997 2 20580 028.4709 328.3172 0002820 040.9341 079.4493 15.09487063480423 ISS (ZARYA) 1 25544U 98067A 20332.30977028 .00003390 00000-0 69469-4 0 9999 2 25544 51.6459 261.3271 0001915 87.8147 49.7664 15.49076838257309 CXO 1 25867U 99040B 20333.12278526 +.00000672 +00000-0 +00000-0 0 9999 2 25867 059.5266 262.4102 7999974 226.6124 000.0905 00.37801675009670 ____________________________________________________________________ These 2-Line ...Continue Reading

[list_settings.list_name] Current TLEs

November 26th 2020 PST

HST 1 20580U 90037B 20330.43131503 +.00000799 +00000-0 +37597-4 0 9992 2 20580 028.4710 334.8818 0002788 030.6805 086.0686 15.09485333480277 ISS (ZARYA) 1 25544U 98067A 20331.21473619 .00003509 00000-0 71653-4 0 9995 2 25544 51.6456 266.7444 0001935 81.9967 64.9189 15.49068568257137 CXO 1 25867U 99040B 20333.12278526 +.00000672 +00000-0 +00000-0 0 9999 2 25867 059.5266 262.4102 7999974 226.6124 000.0905 00.37801675009670 ____________________________________________________________________ These 2-Line ...Continue Reading

[list_settings.list_name] Current TLEs

November 25th 2020 PST

HST 1 20580U 90037B 20330.15991157 .00000820 00000-0 38885-4 0 9996 2 20580 28.4710 336.6771 0002777 27.8369 51.1435 15.09485157480354 ISS (ZARYA) 1 25544U 98067A 20330.24640127 .00003729 00000-0 75643-4 0 9994 2 25544 51.6460 271.5344 0001910 73.7585 69.5482 15.49062126256986 CXO 1 25867U 99040B 20330.47852336 .00000659 00000-0 00000+0 0 9995 2 25867 59.5609 262.4691 7993415 226.6389 0.1220 0.37802380 20804 ____________________________________________________________________ These 2-Line ...Continue Reading

[list_settings.list_name] Current TLEs

November 24th 2020 PST

HST 1 20580U 90037B 20328.81915510 .00000799 00000-0 37626-4 0 9992 2 20580 28.4711 345.5459 0002733 13.6856 324.9915 15.09483510480156 ISS (ZARYA) 1 25544U 98067A 20329.26876266 .00004109 00000-0 82547-4 0 9993 2 25544 51.6455 276.3723 0001874 72.1346 15.6656 15.49054666256830 CXO 1 25867U 99040B 20330.47852336 .00000659 00000-0 00000+0 0 9995 2 25867 59.5609 262.4691 7993415 226.6389 0.1220 0.37802380 20804 ____________________________________________________________________ These 2-Line ...Continue Reading
  • This mailing list is a public mailing list - anyone may join or leave, at any time.
  • This mailing list is announce-only.

International Space Station (ISS) / Hubble Space Telescope (HST) / Chandra X-Ray Observatory Orbital Data via EMAIL

Privacy Policy:

Private list